Hourly Weather Roundup
Issued by NWS Central Illinois

Home | Current Version | Previous Version | Text Only | Print | Product List | Glossary On
Versions: 1 2 3 4 5 6 7 8 9 10 11 12 13 14 15 16 17 18 19 20 21 22 23 24 25 26 27 28 29 30 31 32 33 34 35 36 37 38 39 40 41 42 43 44 45 46 47 48 49 50
000
NZUS43 KILX 250610
HWRILX

AREA WEATHER ROUNDUP
NATIONAL WEATHER SERVICE, LINCOLN IL
100 AM CDT MON MAY 25 2015


CITY           SKY/WX    TMP DP  RH WIND       PRES   REMARKS
BLOOMINGTON    LGT RAIN  66  63  88 S25G33    29.90F
6HR MIN TEMP:  67; 6HR MAX TEMP:  81; 6HR PCP:  0.05;

CHAMPAIGN      LGT RAIN  70  63  78 S18       29.95S
6HR MIN TEMP:  70; 6HR MAX TEMP:  82; 6HR PCP: TRACE;

DANVILLE       CLOUDY    74  63  66 S16       29.94F
6HR MIN TEMP:  74; 6HR MAX TEMP:  80;

DECATUR        CLOUDY    67  64  90 S9        29.93F
6HR MIN TEMP:  67; 6HR MAX TEMP:  81; 6HR PCP:  0.10;

EFFINGHAM      LGT RAIN  67  64  90 S8G16     29.98F
FLORA          CLOUDY    68  64  86 W5        29.98F
6HR MIN TEMP:  67; 6HR MAX TEMP:  81;

GALESBURG      CLOUDY    66  65  96 SE5       29.82F
JACKSONVILLE   CLOUDY    71  66  84 SE15      29.85F
6HR MIN TEMP:  71; 6HR MAX TEMP:  83; 6HR PCP:  0.02;

LACON          RAIN      68  66  92 CALM      29.85F
6HR MIN TEMP:  68; 6HR MAX TEMP:  80; 6HR PCP:  0.03;

LAWRENCEVILLE  CLOUDY    75  64  68 S17G28    30.01R
6HR MIN TEMP:  75; 6HR MAX TEMP:  81;

LITCHFIELD     CLOUDY    66  63  91 SE15      29.90F
$$


CITY           SKY/WX    TMP DP  RH WIND       PRES   REMARKS
LINCOLN        LGT RAIN  68  63  84 S13       29.87F
6HR MIN TEMP:  68; 6HR MAX TEMP:  83;

MACOMB         CLOUDY    67  66  97 SE12      29.83F
MATTOON        CLOUDY    68  65  90 S6        29.96F
6HR MIN TEMP:  68; 6HR MAX TEMP:  80; 6HR PCP:  0.23;

MT CARMEL AP   CLOUDY    77  61  57 S24G32    30.00S
OLNEY-NOBLE AP LGT RAIN  73  66  78 S12G23    29.98F
PARIS          CLOUDY    75  64  68 S16       29.98F
6HR MIN TEMP:  75; 6HR MAX TEMP:  82;

PEORIA         LGT RAIN  70  66  87 SE8       29.86F
6HR MIN TEMP:  70; 6HR MAX TEMP:  81; 6HR PCP:  0.06;

PONTIAC        LGT RAIN  76  66  70 S20G31    29.90F
RANTOUL        CLOUDY    76  64  65 S26G37    29.95R
6HR MIN TEMP:  76; 6HR MAX TEMP:  83;

ROBINSON       CLOUDY    75  64  67 S15G23    30.00S
6HR MIN TEMP:  75; 6HR MAX TEMP:  81;

SPRINGFIELD    CLOUDY    69  67  93 S15       29.88F
6HR MIN TEMP:  69; 6HR MAX TEMP:  80; 6HR PCP:  0.21;

TAYLORVILLE    CLOUDY    64  63  94 SE10      29.91F
$$

...REGIONAL REPORTS...


CITY           SKY/WX    TMP DP  RH WIND       PRES   REMARKS
CHICAGO O`HARE MOCLDY    70  62  76 S12G20    29.89F
KANKAKEE       CLOUDY    73  63  69 S16G24    29.92F
MOLINE         CLOUDY    68  64  87 SE7       29.81F
MOUNT VERNON   CLOUDY    70  64  83 S10       29.97F
PITTSFIELD     CLOUDY    69  65  86 S13G20    29.83F
QUINCY         CLOUDY    69  66  90 S14       29.79S
ROCKFORD       LGT RAIN  68  65  90 S15       29.88F FOG
$$


CITY           SKY/WX    TMP DP  RH WIND       PRES   REMARKS
BURLINGTON     RAIN      67  67 100 S5        29.79F FOG
CEDAR RAPIDS   CLOUDY    66  66 100 S7        29.78F
DES MOINES     LGT RAIN  65  62  90 S7        29.77F
KIRKSVILLE     CLOUDY    63  63 100 W5        29.82S
OTTUMWA        CLOUDY    64  63  96 S7        29.79F
ST LOUIS       CLOUDY    70  64  81 S16G23    29.88F
$$


CITY           SKY/WX    TMP DP  RH WIND       PRES   REMARKS
TERRE HAUTE    CLOUDY    75  62  64 S15       30.00F
EVANSVILLE     LGT RAIN  75  65  70 S14G26    30.04R
INDIANAPOLIS   MOCLDY    73  58  59 S15       30.02F
LAFAYETTE      PTCLDY    72  60  66 S8        29.97F
MADISON        LGT RAIN  63  61  93 S8        29.83F FOG
MILWAUKEE      CLOUDY    58  56  93 NW6       29.90F FOG
$$





USA.gov is the U.S. government's official web portal to all federal, state and local government web resources and services.